This is the latest recevied weather packets stored in our database for station/object DL6DJ-15. If no packets are shown the sender has not sent any weather packets the latest 10 day(s).
| Time | Temp. | Humidity | Pressure | Rain* | Wind** | Luminosity | Snow |
|---|---|---|---|---|---|---|---|
| 1787822285 | 31.67° C | 36% | 1018.1 hPa | - | - | - | - |
| 1787821985 | 31.67° C | 36% | 1018.1 hPa | - | - | - | - |
| 1787821685 | 30.56° C | 36% | 1018.2 hPa | - | - | - | - |
| 1787821384 | 30° C | 38% | 1018.3 hPa | - | - | - | - |
| 1787821084 | 30.56° C | 35% | 1018.3 hPa | - | - | - | - |
| 1787820784 | 29.44° C | 37% | 1018.3 hPa | - | - | - | - |
| 1787820483 | 29.44° C | 40% | 1018.4 hPa | - | - | - | - |
| 1787820183 | 30° C | 36% | 1018.3 hPa | - | - | - | - |
| 1787819882 | 31.11° C | 34% | 1018.4 hPa | - | - | - | - |
| 1787819583 | 31.67° C | 34% | 1018.4 hPa | - | - | - | - |
| 1787819282 | 32.22° C | 34% | 1018.4 hPa | - | - | - | - |
| 1787818982 | 33.33° C | 32% | 1018.4 hPa | - | - | - | - |
| 1787818681 | 33.89° C | 31% | 1018.5 hPa | - | - | - | - |
| 1787818380 | 33.89° C | 31% | 1018.6 hPa | - | - | - | - |
| 1787818080 | 33.89° C | 31% | 1018.5 hPa | - | - | - | - |
| 1787817780 | 32.22° C | 34% | 1018.4 hPa | - | - | - | - |
| 1787817479 | 30.56° C | 38% | 1018.4 hPa | - | - | - | - |
| 1787817179 | 28.33° C | 44% | 1018.2 hPa | - | - | - | - |
| 1787816879 | 26.11° C | 49% | 1018.2 hPa | - | - | - | - |
| 1787816578 | 23.89° C | 54% | 1018.1 hPa | - | - | - | - |
| 1787816278 | 23.33° C | 56% | 1018.1 hPa | - | - | - | - |
| 1787815977 | 23.33° C | 57% | 1018.1 hPa | - | - | - | - |
| 1787815677 | 23.33° C | 56% | 1018.2 hPa | - | - | - | - |
| 1787815377 | 23.33° C | 56% | 1018 hPa | - | - | - | - |
| 1787815077 | 23.89° C | 52% | 1018 hPa | - | - | - | - |
* Rain since midnight (hover to see other rain measurements)
** Current wind speed in m/s (hover to see current wind gust speed)